Tracking 17925 objects as of 19-January-2017
HD Live streaming from Space Station
objects crossing your sky now

GLOBALSTAR M042

Track GLOBALSTAR M042 now!
10-day predictions
GLOBALSTAR M042 is classified as:


NORAD ID: 25679
Int'l Code: 1999-019D
Perigee: 1,588.2 km
Apogee: 1,593.8 km
Inclination: 52.0 °
Period: 117.8 minutes
Semi major axis: 7962 km
RCS: 2.3601 m2 (large)
Launch date: April 15, 1999
Source: Globalstar (GLOB)
Launch site: TYURATAM MISSILE AND SPACE COMPLEX (TTMTR)
Your satellite tracking list
Your tracking list is empty





NASA's NSSDC Master Catalog

Two Line Element Set (TLE):
1 25679U 99019D   17018.65829083 -.00000062  00000-0  28175-3 0  9990
2 25679  52.0023  81.0697 0003489 116.2629 348.9671 12.21993965809805
Source of the keplerian elements: AFSPC